Location: Plainartige
(45.6866°N, 1.7993°E)
Time: 13:25:47
(UTC+00:00)

RS-15 - Pass Details

Date: 07 July 2022
Orbit: 1881 x 2163 km, 64.8° (Epoch: 13 August)

Event Time Altitude Azimuth Distance (km) Brightness Sun altitude
Rises 00:32:12 0° 321° (NW) 5,696 11.1 -21.3°
Reaches altitude 10° 00:36:23 10° 311° (NW) 4,677 10.4 -21.1°
Maximum altitude 00:45:51 28° 259° (W) 3,383 9.0 -20.8°
Enters shadow 00:51:03 20° 224° (SW) 3,772 9.0 -20.6°
